Location: Thompson
(55.7500°N, 97.8670°W)
Time: 07:16:00
(UTC-06:00)

Cosmos 1666 - Visible Passes

Search period start: 21 February 2018 00:00
Search period end: 03 March 2018 00:00
Orbit: 501 x 523 km, 82.5° (Epoch: 20 February)

Date Brightness Start Highest point End Pass type
(mag) Time Alt. Az. Time Alt. Az. Time Alt. Az.
26 Feb 5.6 06:50:47 10° NNE 06:53:32 18° ENE 06:56:16 10° ESE visible
27 Feb 5.7 06:34:47 10° NNE 06:37:13 16° ENE 06:39:37 10° E visible
28 Feb 5.8 06:18:51 10° NNE 06:20:53 14° ENE 06:22:54 10° E visible
01 Mar 5.9 06:03:04 10° NNE 06:04:32 12° NE 06:06:01 10° ENE visible
01 Mar 5.5 21:41:07 13° N 21:41:07 13° N 21:41:37 10° N visible
02 Mar 6.2 05:47:45 10° NE 05:48:11 10° NE 05:48:38 10° ENE visible
02 Mar 5.0 21:24:14 19° N 21:24:14 19° N 21:25:25 10° N visible
